Flag for U.S.A. Weather past 2 weeks in Cleveland, Ohio, U.S.A.

Now
29 °F

Overcast.


Feels Like: 18 °F
Forecast: 30 / 33 °F
Wind: 15 mph from Northwest

Location: Cleveland-Hopkins International Airport

Current Time: Dec 18, 2014 at 2:44:27 AM

Latest Report: Dec 18, 2014 at 1:51 AM


Visibility: 10 mi

Pressure: 30.22 "Hg

Humidity: 66%

Dew point: 19 °F

Location of ClevelandLocation

Historic Weather in Cleveland — Graph

°F

Cleveland temperature yesterday

Maximum temperature yesterday: 40 °F (at 12:51 AM)
Minimum temperature yesterday: 29 °F (at 7:51 PM)
Average temperature yesterday: 33 °F

Past Weeks' High & Low Weather Summary

 TemperatureHumidityPressure
High54 °F (Dec 15, 1:51 PM)97% (Dec 13, 5:03 PM)30.71 "Hg (Dec 13, 5:03 PM)
Low25 °F (Dec 11, 8:51 AM)30% (Dec 8, 1:51 PM)29.72 "Hg (Dec 16, 11:51 AM)
Average36 °F77%30.20 "Hg
* Reported Dec 3 1:51 AM — Dec 18 1:51 AM, Cleveland, Weather by CustomWeather, © 2014

Note: Actual official high and low records may vary slightly from our data, if they occured in-between our weather recording intervals... More about our weather records

Advertising

Cleveland weather history for previous 24 hours

 ConditionsComfort  
Time TempWeatherWind HumidityBarometerVisibility
1:51 AM
Dec 18
29 °FOvercast.15 mph66%30.22 "Hg10 mi
12:51 AM29 °FLight snow. Overcast.22 mph69%30.21 "Hg9 mi
11:51 PM
Dec 17
29 °FLight snow. Overcast.16 mph72%30.21 "Hg9 mi
10:51 PM29 °FLight snow. Overcast.12 mph75%30.19 "Hg9 mi
9:51 PM29 °FLight snow. Mostly cloudy.14 mph75%30.19 "Hg9 mi
8:51 PM29 °FLight snow. Overcast.15 mph72%30.19 "Hg9 mi
7:51 PM29 °FLight snow. Overcast.13 mph72%30.19 "Hg9 mi
6:51 PM30 °FLight snow. Overcast.16 mph69%30.18 "Hg9 mi
5:51 PM30 °FLight snow. Overcast.16 mph75%30.15 "Hg9 mi
4:51 PM30 °FLight snow. Overcast.15 mph75%30.14 "Hg10 mi
3:51 PM31 °FOvercast.14 mph73%30.14 "Hg10 mi
2:51 PM31 °FOvercast.20 mph73%30.13 "Hg10 mi
1:51 PM32 °FOvercast.15 mph73%30.13 "Hg10 mi
12:51 PM32 °FOvercast.15 mph75%30.12 "Hg10 mi
11:51 AM33 °FOvercast.18 mph72%30.12 "Hg10 mi
10:51 AM33 °FOvercast.16 mph75%30.13 "Hg10 mi
9:51 AM33 °FOvercast.20 mph72%30.12 "Hg10 mi
8:51 AM33 °FOvercast.17 mph75%30.10 "Hg10 mi
7:51 AM34 °FLight snow. Overcast.20 mph82%30.08 "Hg9 mi
6:51 AM34 °FLight snow. Overcast.16 mph88%30.06 "Hg9 mi
5:51 AM35 °FLight snow. Mostly cloudy.21 mph85%30.03 "Hg9 mi
4:51 AM37 °FOvercast.22 mph86%30.01 "Hg10 mi
4:04 AM37 °FOvercast.17 mph89%29.99 "Hg10 mi
2:51 AM39 °FMostly cloudy.17 mph89%29.98 "Hg10 mi
2:04 AM40 °FLight rain. Overcast.17 mph86%29.96 "Hg10 mi
Weather by CustomWeather, © 2014

See weather overviewHow to use our weather pages